This is the latest recevied weather packets stored in our database for station/object KA1AL. If no packets are shown the sender has not sent any weather packets the latest 10 day(s).
| Time | Temp. | Humidity | Pressure | Rain* | Wind** | Luminosity | Snow |
|---|---|---|---|---|---|---|---|
| 1778067218 | 11.11° C | 99% | 1009.6 hPa | 0 mm | - | 81 W/m² | - |
| 1778066915 | 10.56° C | 99% | 1009.3 hPa | 0 mm | - | 71 W/m² | - |
| 1778066612 | 10.56° C | 99% | 1009.4 hPa | 0 mm | - | 75 W/m² | - |
| 1778066309 | 10.56° C | 99% | 1009.3 hPa | 0 mm | - | 42 W/m² | - |
| 1778066008 | 10.56° C | 99% | 1009.3 hPa | 0 mm | - | 49 W/m² | - |
| 1778065705 | 10.56° C | 99% | 1009 hPa | 0 mm | - | 80 W/m² | - |
| 1778065402 | 10.56° C | 99% | 1009.4 hPa | 0 mm | - | 63 W/m² | - |
| 1778065098 | 10.56° C | 99% | 1009.2 hPa | 0 mm | - | 50 W/m² | - |
| 1778064795 | 10.56° C | 99% | 1009.5 hPa | 0 mm | - | 40 W/m² | - |
| 1778064492 | 10.56° C | 99% | 1009.6 hPa | 0 mm | - | 31 W/m² | - |
| 1778064190 | 11.11° C | 99% | 1009.3 hPa | 0 mm | - | 16 W/m² | - |
| 1778063888 | 11.11° C | 99% | 1009.4 hPa | 0 mm | - | 24 W/m² | - |
| 1778063585 | 11.11° C | 99% | 1009.3 hPa | 0 mm | - | 38 W/m² | - |
| 1778063282 | 11.11° C | 98% | 1009.2 hPa | 0 mm | - | 26 W/m² | - |
| 1778062980 | 11.11° C | 97% | 1009 hPa | 0 mm | - | 23 W/m² | - |
| 1778062677 | 11.11° C | 97% | 1008.8 hPa | 0 mm | - | 17 W/m² | - |
| 1778062373 | 10.56° C | 98% | 1009 hPa | 0 mm | - | 14 W/m² | - |
| 1778062071 | 10.56° C | 99% | 1009.2 hPa | 0 mm | - | 15 W/m² | - |
| 1778061769 | 10.56° C | 99% | 1009.1 hPa | 0 mm | - | 10 W/m² | - |
| 1778061468 | 10.56° C | 99% | 1009.3 hPa | 0 mm | - | 10 W/m² | - |
| 1778061164 | 10.56° C | 99% | 1009.1 hPa | 0 mm | - | 13 W/m² | - |
| 1778060559 | 11.11° C | 98% | 1008.6 hPa | 0 mm | - | 2 W/m² | - |
| 1778060257 | 11.11° C | 98% | 1008.6 hPa | 0 mm | - | 2 W/m² | - |
| 1778059954 | 11.11° C | 98% | 1009.1 hPa | 0 mm | - | 2 W/m² | - |
| 1778059652 | 11.11° C | 97% | 1008.7 hPa | 0 mm | - | 2 W/m² | - |
* Rain latest hour (hover to see other rain measurements)
** Current wind speed in m/s (hover to see current wind gust speed)